This demonstration page uses our WeatherBlox Daily Observations layout. Learn more.

Left ArrowRight Arrow

31.84235, -102.49876

Hourly Observations for May 13, 2021

Temp ( °F °C ) Dew Point ( °F °C ) Humidity (%) Winds ( mph kmh ) Pressure ( in mb ) Visibility ( mi km ) Precip ( " mm )
12:53 am 00:53 Clear 56 13.3 47 8.3 72 72 ESE 15 24 30.24 1024 10 16 0.00 0.00
1:53 am 01:53 Clear 55 12.8 47 8.3 74 74 ESE 10 17 30.25 1024 10 16 0.00 0.00
2:53 am 02:53 Clear 53 11.7 47 8.3 80 80 ESE 9 15 30.24 1024 10 16 0.00 0.00
3:53 am 03:53 Partly Cloudy 53 11.7 46 7.8 77 77 ESE 9 15 30.23 1024 10 16 0.00 0.00
4:53 am 04:53 Mostly Cloudy 53 11.7 46 7.8 77 77 ESE 9 15 30.24 1024 10 16 0.00 0.00
5:53 am 05:53 Cloudy 53 11.7 46 7.8 77 77 ESE 13 20 30.24 1024 10 16 0.00 0.00
6:53 am 06:53 Cloudy 53 11.7 47 8.3 80 80 ESE 10 17 30.24 1024 10 16 0.00 0.00
7:53 am 07:53 Cloudy 54 12.2 47 8.3 77 77 ESE 12 19 30.26 1025 10 16 0.00 0.00
8:53 am 08:53 Cloudy 55 12.8 47 8.3 74 74 ESE 10 17 30.29 1026 10 16 0.00 0.00
9:08 am 09:08 Cloudy 55 12.8 47 8.3 74 74 ESE 12 19 30.33 1027 10 16 0.00 0.00
9:53 am 09:53 Cloudy 56 13.3 48 8.9 75 75 ESE 10 17 30.29 1026 10 16 0.00 0.00
10:53 am 10:53 Cloudy 58 14.4 48 8.9 70 70 SE 12 19 30.29 1026 10 16 0.00 0.00
11:24 am 11:24 Cloudy 60 15.6 48 8.9 65 65 E 9 15 30.29 1026 10 16 0.00 0.00
11:53 am 11:53 Cloudy 62 16.7 48 8.9 60 60 E 10 17 30.27 1025 10 16 0.00 0.00
12:53 pm 12:53 Cloudy 66 18.9 48 8.9 52 52 E 7 11 30.25 1024 10 16 0.00 0.00
1:53 pm 13:53 Sunny 69 20.6 48 8.9 47 47 SE 10 17 30.21 1023 10 16 0.00 0.00
2:53 pm 14:53 Sunny 73 22.8 48 8.9 41 41 SE 12 19 30.17 1022 10 16 0.00 0.00
3:53 pm 15:53 Sunny 74 23.3 49 9.4 41 41 SSE 15 24 30.14 1021 10 16 0.00 0.00
4:53 pm 16:53 Sunny 75 23.9 50 10 41 41 ESE 12 19 30.09 1019 10 16 0.00 0.00
5:53 pm 17:53 Sunny 77 25 50 10 39 39 SE 12 19 30.06 1018 10 16 0.00 0.00
6:53 pm 18:53 Sunny 77 25 50 10 39 39 SSE 14 22 30.05 1018 10 16 0.00 0.00
7:53 pm 19:53 Sunny 76 24.4 49 9.4 39 39 SSE 14 22 30.05 1018 10 16 0.00 0.00
8:53 pm 20:53 Clear 73 22.8 49 9.4 43 43 SE 9 15 30.06 1018 10 16 0.00 0.00
9:53 pm 21:53 Clear 71 21.7 49 9.4 46 46 SE 15 24 30.07 1018 10 16 0.00 0.00
10:53 pm 22:53 Clear 69 20.6 50 10 51 51 SE 15 24 30.09 1019 10 16 0.00 0.00
11:53 pm 23:53 Clear 66 18.9 51 10.6 59 59 SE 16 26 30.10 1019 10 16 0.00 0.00

Powered by AerisWeather